Kezdőlap
METAR-TAF:

METAR-TAF

Repülőterek :

Litchfield Municipal Airport

Litchfield, Minnesota, Amerikai Egyesült Államok

földrajzi szélesség: 45-05-50N, földrajzi hosszúság: 094-30-26W, magasság: 348 m

Jelenlegi meteorológiai megfigyelések

A jelentés 16 perccel ezelõtt készült, 10:55 UTC
Szélcsend
Hőmérséklet -1°C
Páratartalom 86%
Légköri nyomás 1019 hPa
Látótávolság: 16.1 km
Derült ég

METAR: KLJF 231055Z AUTO 00000KT 10SM CLR M01/M03 A3009 RMK AO2

Idő: 06:11 (11:11 UTC)


TAF: hiányzik

Meteorológiai megfigyelések és előrejelzések több, mint 4000 repülőtéren (METAR és TAF jelentéseket).

A térképen piros és sárga pontok jelzik az elérhető meteorológiai állomásokat.

Mozgassa az egeret a pont fölött, hogy megjelenjen az állomás neve.

Azután kattintson az időjárási megfigyelések és előrejelzések megtekintéséhez.

A térkép megváltoztatása: kattintson a fekete keresztel jelölt zöld gombra ráközelítéshez, a vonallal jelölt zöld gombra távolításhoz, vagy a zöld nyilakra a szomszédos térképek eléréséhez.


METAR-TAF: